sat.trackr.live / text

‹ back to catalog

KUIPER-00166

NORAD 65779 · 2025-217T

PAYLOAD ACTIVE UNKNOWN

§ Identity

Operator
Country
US
Launch date
2025-09-25
Launch site
AFETR
Launch vehicle
Mass (kg)
RCS (m²)

External: N2YO · Heavens-Above · Gunter

§ Orbital elements

Epoch: 2026-05-25T00:19:32.900736Z

Period
97.30 min
Inclination
51.9034°
Eccentricity
0.0000783
Mean motion
14.79930676 rev/d
Perigee alt
629.0 km
Apogee alt
630.1 km
Semi-major
7,007.7 km
B*
-8.4939e-5
RAAN
45.6360°
Arg perigee
104.3793°
Mean anomaly
255.7257°
Rev number
3,645

§ Raw data

KUIPER-001661 65779U 25217T   26145.01357524 -.00000869  00000+0 -84939-4 0  99972 65779  51.9034  45.6360 0000783 104.3793 255.7257 14.79930676 36450

JSON: /api/v1/satellites/65779 · /tle

For live sub-satellite position, see the globe view (requires WebGL).

§ Visibility from observer

Set your observer location to see the next 7 days of passes ≥ 10°. The values pass through the URL so the page stays shareable.

No JS? Fill the form by hand. The geolocation button needs JavaScript.